TimeICT,TemperatureF,Dew PointF,Humidity,Sea Level PressureIn,VisibilityMPH,Wind Direction,Wind SpeedMPH,Gust SpeedMPH,PrecipitationIn,Events,Conditions,WindDirDegrees,DateUTC
12:00 AM,77.0,71.6,83,29.83,5.0,ENE,6.9,-,N/A,,Mostly Cloudy,70,2012-12-25 17:00:00
12:30 AM,78.8,71.6,78,29.83,5.0,East,5.8,-,N/A,,Mostly Cloudy,100,2012-12-25 17:30:00
1:00 AM,78,74,84,29.80,5,Calm,Calm,,,,Mist,,2012-12-25 18:00:00
1:00 AM,77.0,71.6,83,29.83,5.0,Calm,Calm,-,N/A,,Mostly Cloudy,0,2012-12-25 18:00:00
3:30 AM,78.8,69.8,74,29.77,5.0,ENE,5.8,-,N/A,,Mostly Cloudy,60,2012-12-25 20:30:00
4:00 AM,78.8,69.8,74,29.77,5.0,ENE,5.8,-,N/A,,Mostly Cloudy,60,2012-12-25 21:00:00
5:00 AM,78.8,71.6,78,29.74,5.0,East,6.9,-,N/A,,Mostly Cloudy,80,2012-12-25 22:00:00
6:00 AM,78.8,71.6,78,29.74,5.0,ENE,9.2,-,N/A,,Mostly Cloudy,60,2012-12-25 23:00:00
6:30 AM,78.8,71.6,78,29.74,5.0,ENE,9.2,-,N/A,,Mostly Cloudy,60,2012-12-25 23:30:00
7:00 AM,78,72,78,29.74,6,ENE,5.8,,,,Scattered Clouds,60,2012-12-26 00:00:00
7:00 AM,78.8,71.6,78,29.74,5.6,ENE,8.1,-,N/A,,Mostly Cloudy,60,2012-12-26 00:00:00
7:30 AM,78.8,71.6,78,29.77,5.6,ENE,9.2,-,N/A,,Mostly Cloudy,60,2012-12-26 00:30:00
8:00 AM,80.6,71.6,74,29.80,6.2,ENE,11.5,-,N/A,,Mostly Cloudy,60,2012-12-26 01:00:00
8:30 AM,80.6,71.6,74,29.80,6.2,ENE,11.5,-,N/A,,Mostly Cloudy,60,2012-12-26 01:30:00
9:00 AM,84.2,71.6,66,29.80,6.2,East,11.5,-,N/A,,Mostly Cloudy,80,2012-12-26 02:00:00
9:30 AM,84.2,71.6,66,29.80,6.2,East,16.1,-,N/A,,Mostly Cloudy,90,2012-12-26 02:30:00
10:00 AM,84.2,71.6,66,29.80,6.2,East,11.5,-,N/A,,Scattered Clouds,90,2012-12-26 03:00:00
10:30 AM,84.2,71.6,66,29.80,6.2,East,19.6,-,N/A,,Scattered Clouds,90,2012-12-26 03:30:00
11:00 AM,86.0,71.6,62,29.77,6.2,East,13.8,-,N/A,,Scattered Clouds,90,2012-12-26 04:00:00
11:30 AM,86.0,71.6,62,29.77,6.2,East,19.6,-,N/A,,Scattered Clouds,90,2012-12-26 04:30:00
12:00 PM,86.0,71.6,62,29.74,6.2,East,13.8,-,N/A,,Scattered Clouds,80,2012-12-26 05:00:00
12:30 PM,87.8,71.6,58,29.74,6.2,ENE,13.8,-,N/A,,Scattered Clouds,70,2012-12-26 05:30:00
1:00 PM,89,74,53,29.73,6,East,13.8,,,,Scattered Clouds,90,2012-12-26 06:00:00
1:00 PM,87.8,71.6,58,29.74,6.2,ENE,11.5,-,N/A,,Scattered Clouds,60,2012-12-26 06:00:00
1:30 PM,87.8,71.6,58,29.71,6.2,East,16.1,-,N/A,,Mostly Cloudy,90,2012-12-26 06:30:00
2:00 PM,87.8,71.6,58,29.71,6.2,East,11.5,-,N/A,,Mostly Cloudy,80,2012-12-26 07:00:00
2:30 PM,87.8,71.6,58,29.68,6.2,East,12.7,-,N/A,,Mostly Cloudy,90,2012-12-26 07:30:00
3:00 PM,87.8,71.6,58,29.68,6.2,ENE,6.9,-,N/A,,Mostly Cloudy,70,2012-12-26 08:00:00
3:30 PM,87.8,71.6,58,29.68,6.2,East,12.7,-,N/A,,Mostly Cloudy,100,2012-12-26 08:30:00
4:00 PM,87.8,73.4,62,29.68,6.2,East,11.5,-,N/A,,Mostly Cloudy,90,2012-12-26 09:00:00
4:30 PM,87.8,71.6,58,29.68,6.2,ENE,6.9,-,N/A,,Mostly Cloudy,60,2012-12-26 09:30:00
5:00 PM,86.0,71.6,62,29.68,6.2,East,5.8,-,N/A,,Mostly Cloudy,80,2012-12-26 10:00:00
5:30 PM,86.0,71.6,62,29.71,5.6,Calm,Calm,-,N/A,,Mostly Cloudy,0,2012-12-26 10:30:00
6:00 PM,84.2,73.4,70,29.71,5.0,Calm,Calm,-,N/A,,Mostly Cloudy,0,2012-12-26 11:00:00
6:30 PM,77.0,75.2,94,29.74,1.9,North,11.5,-,N/A,Rain,Rain,350,2012-12-26 11:30:00
7:00 PM,82,77,81,29.73,5,,4.6,,,Rain,Light Rain,,2012-12-26 12:00:00
7:00 PM,78.8,75.2,89,29.77,4.3,SE,9.2,-,N/A,Rain,Light Rain,140,2012-12-26 12:00:00
7:30 PM,78.8,73.4,83,29.77,1.2,East,11.5,-,N/A,Rain,Rain,90,2012-12-26 12:30:00
8:00 PM,77.0,75.2,94,29.80,3.1,South,5.8,-,N/A,Rain,Rain,180,2012-12-26 13:00:00
8:30 PM,77.0,75.2,94,29.80,4.3,ESE,5.8,-,N/A,Thunderstorm,Thunderstorm,120,2012-12-26 13:30:00
9:00 PM,77.0,73.4,89,29.80,4.3,ENE,3.5,-,N/A,,Mostly Cloudy,70,2012-12-26 14:00:00
9:30 PM,80.6,71.6,74,29.83,5.0,ENE,9.2,-,N/A,,Mostly Cloudy,60,2012-12-26 14:30:00
10:00 PM,80.6,71.6,74,29.86,5.0,NE,6.9,-,N/A,,Mostly Cloudy,40,2012-12-26 15:00:00
10:30 PM,80.6,71.6,74,29.83,5.0,East,4.6,-,N/A,,Mostly Cloudy,80,2012-12-26 15:30:00
11:00 PM,78.8,69.8,74,29.83,5.0,East,6.9,-,N/A,,Mostly Cloudy,80,2012-12-26 16:00:00
11:30 PM,78.8,71.6,78,29.83,5.0,Calm,Calm,-,N/A,,Mostly Cloudy,0,2012-12-26 16:30:00